Regional Weather Roundup
Issued by NWS

Home | Current Version | Previous Version | Graphics & Text | Print | Product List | Glossary On
Versions: 1 2 3 4 5 6 7 8 9 10 11 12 13 14 15 16 17 18 19 20 21 22 23 24 25 26 27 28 29 30 31 32 33 34 35 36 37 38 39 40 41 42 43 44 45 46 47 48 49 50
000
ASUS43 KLOT 012358
RWRIL

ILLINOIS REGIONAL WEATHER ROUNDUP
NATIONAL WEATHER SERVICE CHICAGO/ROMEOVILLE IL
700 PM CDT FRI AUG 01 2014

NOTE: "FAIR" INDICATES FEW OR NO CLOUDS BELOW 12,000 FEET WITH NO
SIGNIFICANT WEATHER AND/OR OBSTRUCTIONS TO VISIBILITY.

* THESE STATIONS ARE NOT UNDER NWS QUALITY CONTROL. THEY ALSO MAY NOT
  REPORT WEATHER SUCH AS PRECIPITATION OR FOG.

ILZ001-002-007-009-015-016-024-020100-
NORTHWEST ILLINOIS

CITY           SKY/WX    TMP DP  RH WIND       PRES   REMARKS
MOLINE         PTSUNNY   76  68  76 SW5       30.06R
6HR MIN TEMP:  76; 6HR MAX TEMP:  84;

$$

ILZ003-004-008-010-011-017-018-020100-
NORTH CENTRAL ILLINOIS

CITY           SKY/WX    TMP DP  RH WIND       PRES   REMARKS
ROCKFORD       PTSUNNY   80  58  46 S8        30.07R THUNDER HX  80
$$

ILZ005-006-012>014-019>023-020100-
NORTHEAST ILLINOIS

CITY           SKY/WX    TMP DP  RH WIND       PRES   REMARKS
CHICAGO-OHARE  PTSUNNY   73  56  54 S10       30.07S
6HR MIN TEMP:  73; 6HR MAX TEMP:  85; 6HR PCP:  0.15;

CHICAGO-MIDWAY CLOUDY    75  58  55 SW13      30.07F
6HR MIN TEMP:  72; 6HR MAX TEMP:  82; 6HR PCP:  0.05;

AURORA         LGT RAIN  68  60  75 N5        30.10R
6HR MIN TEMP:  67; 6HR MAX TEMP:  83; 6HR PCP:  0.02;

WAUKEGAN       MOSUNNY   74  59  59 SE8       30.07R
6HR MIN TEMP:  74; 6HR MAX TEMP:  84;

DUPAGE AIRPORT PTSUNNY   70  60  70 S9        30.09R
6HR MIN TEMP:  70; 6HR MAX TEMP:  85; 6HR PCP: TRACE;

WHEELING       MOSUNNY   77  59  53 S9        30.08R
6HR MIN TEMP:  70; 6HR MAX TEMP:  80; 6HR PCP:  0.12;

NORTHERLY ISL    N/A     76  54  46 SW7         N/A
$$

LMZ740>746-020100-
SOUTHERN LAKE MICHIGAN

STATION/POSITION SKY/WX   TEMP    WIND        PRES    VSBY  WAVE
                          AIR SEA DIR/SP/G                  HT/PER
                          (F)     (DEG/KT/KT) (MB)    (MI)  (FT/S)
SOUTHERN BUOY              68 66  170/ 10/ 10 1018.1S         0
WAUKEGAN HARBOR            71     160/ 15/ 17   N/A
HARRISON CRIB              72     180/ 10/ 11   N/A
BURNHAM HARBOR             76     190/  6/  7   N/A
CALUMET HARBOR             75     200/  8/ 12 1016.8F
BURNS HARBOR               77     230/  6/  8   N/A
MICHIGAN CITY              76     170/  6/  7   N/A
MICHIGAN CITY 6N           71 70   CALM  /  2   N/A           1
ST. JOSEPH                 70 70  230/  2/  4   N/A           1
$$

ILZ025>027-034>036-040-047-049-050-058-095>099-020100-
WEST-CENTRAL ILLINOIS

CITY           SKY/WX    TMP DP  RH WIND       PRES   REMARKS
$$

ILZ028>032-037-038-041>044-048-051>054-059>061-020100-
CENTRAL ILLINOIS

CITY           SKY/WX    TMP DP  RH WIND       PRES   REMARKS
PEORIA         NOT AVBL
SPRINGFIELD    MOSUNNY   71  63  75 SE6       30.08S
6HR MIN TEMP:  65; 6HR MAX TEMP:  82; 6HR PCP:  0.67;

TAYLORVILLE    NOT AVBL
$$

ILZ033-039-045-046-055>057-062-063-020100-
EAST-CENTRAL ILLINOIS

CITY           SKY/WX    TMP DP  RH WIND       PRES   REMARKS
CHAMPAIGN      CLOUDY    71  65  81 SW6       30.10R
MATTOON        LGT RAIN  65  64  97 W8        30.11R FOG
$$

ILZ079-100>102-020100-
SOUTHWEST ILLINOIS

CITY           SKY/WX    TMP DP  RH WIND       PRES   REMARKS
ALTON          PTSUNNY   72  66  83 NE5       30.08S
CAHOKIA*       LGT RAIN  72  67  84 NE7       30.07R
$$

ILZ064>066-069>071-074>076-080>082-084>086-088>090-092>094-020100-
SOUTH-CENTRAL ILLINOIS

CITY           SKY/WX    TMP DP  RH WIND       PRES   REMARKS
CARBONDALE     MOSUNNY   80  65  59 W5        30.03S HX  82
6HR MIN TEMP:  80; 6HR MAX TEMP:  86;

$$

ILZ067-068-072-073-078-083-087-091-020100-
SOUTHEAST ILLINOIS

CITY           SKY/WX    TMP DP  RH WIND       PRES   REMARKS
$$

ABBREVIATIONS USED IN REMARKS
   TC - TEMPERATURE IN CELSIUS
  WCI - WIND CHILL INDEX
   HX - HEAT INDEX
  VSB - VISIBILITY
$$




USA.gov is the U.S. government's official web portal to all federal, state and local government web resources and services.